| time (UTC) | temp F | wind direction | speed MPH | gust MPH | rain 1hr in | rain 24hr in | rain mn in | humidity % | barometer mb |
| 20260902204554 | 82 | 143 | 7.0 | 13.0 | 0.00 | 0.00 | 0.00 | 29 | 1003.9 |
| 20260902203055 | 80 | 207 | 8.0 | 17.0 | 0.00 | 0.00 | 0.00 | 30 | 1004.3 |
| 20260902201558 | 80 | 206 | 9.0 | 17.0 | 0.00 | 0.00 | 0.00 | 30 | 1004.5 |
| 20260902200107 | 79 | 206 | 9.0 | 14.0 | 0.00 | 0.00 | 0.00 | 31 | 1004.5 |
| 20260902194558 | 79 | 180 | 11.0 | 17.0 | 0.00 | 0.00 | 0.00 | 30 | 1004.7 |
| 20260902193058 | 79 | 189 | 9.0 | 14.0 | 0.00 | 0.00 | 0.00 | 33 | 1004.9 |
| 20260902191556 | 78 | 175 | 5.0 | 12.0 | 0.00 | 0.00 | 0.00 | 34 | 1004.9 |
| 20260902190055 | 76 | 200 | 8.0 | 13.0 | 0.00 | 0.00 | 0.00 | 35 | 1005.3 |
| 20260902184601 | 76 | 192 | 6.0 | 12.0 | 0.00 | 0.00 | 0.00 | 36 | 1005.5 |
| 20260902183100 | 76 | 199 | 9.0 | 15.0 | 0.00 | 0.00 | 0.00 | 36 | 1005.7 |
| 20260902181552 | 76 | 214 | 8.0 | 17.0 | 0.00 | 0.00 | 0.00 | 38 | 1005.8 |
| 20260902180130 | 74 | 199 | 10.0 | 18.0 | 0.00 | 0.00 | 0.00 | 41 | 1006.0 |
| 20260902174557 | 74 | 222 | 10.0 | 15.0 | 0.00 | 0.00 | 0.00 | 43 | 1006.1 |
| 20260902173054 | 72 | 192 | 10.0 | 16.0 | 0.00 | 0.00 | 0.00 | 45 | 1006.4 |
| 20260902171556 | 71 | 179 | 8.0 | 11.0 | 0.00 | 0.00 | 0.00 | 47 | 1006.3 |
| 20260902170056 | 70 | 207 | 7.0 | 13.0 | 0.00 | 0.00 | 0.00 | 48 | 1006.2 |
| 20260902164554 | 70 | 201 | 9.0 | 14.0 | 0.00 | 0.00 | 0.00 | 48 | 1006.2 |
| 20260902163106 | 69 | 192 | 8.0 | 12.0 | 0.00 | 0.00 | 0.00 | 48 | 1006.2 |
| 20260902161601 | 69 | 198 | 7.0 | 11.0 | 0.00 | 0.00 | 0.00 | 48 | 1006.1 |
| 20260902160112 | 69 | 209 | 10.0 | 13.0 | 0.00 | 0.00 | 0.00 | 48 | 1006.2 |
| 20260902154555 | 68 | 204 | 7.0 | 12.0 | 0.00 | 0.00 | 0.00 | 49 | 1006.4 |
| 20260902153057 | 68 | 220 | 6.0 | 11.0 | 0.00 | 0.00 | 0.00 | 49 | 1006.5 |
| 20260902151554 | 66 | 223 | 4.0 | 8.0 | 0.00 | 0.00 | 0.00 | 51 | 1006.7 |
| 20260902150104 | 65 | 240 | 0.0 | 5.0 | 0.00 | 0.00 | 0.00 | 52 | 1007.0 |
| 20260902144600 | 62 | 0 | 0.0 | 0.0 | 0.00 | 0.00 | 0.00 | 56 | 1007.2 |
| 20260902143107 | 60 | 0 | 0.0 | 0.0 | 0.00 | 0.00 | 0.00 | 60 | 1007.2 |
| 20260902141557 | 59 | 0 | 0.0 | 0.0 | 0.00 | 0.00 | 0.00 | 59 | 1007.5 |
| 20260902140059 | 58 | 0 | 0.0 | 0.0 | 0.00 | 0.00 | 0.00 | 61 | 1007.5 |
| 20260902134606 | 57 | 0 | 0.0 | 0.0 | 0.00 | 0.00 | 0.00 | 63 | 1007.5 |
| 20260902133101 | 56 | 0 | 0.0 | 1.0 | 0.00 | 0.00 | 0.00 | 63 | 1007.4 |
| 20260902131551 | 55 | 0 | 0.0 | 0.0 | 0.00 | 0.00 | 0.00 | 65 | 1007.1 |
| 20260902130104 | 55 | 0 | 0.0 | 0.0 | 0.00 | 0.00 | 0.00 | 65 | 1007.1 |
| 20260902124555 | 55 | 0 | 0.0 | 0.0 | 0.00 | 0.00 | 0.00 | 63 | 1007.0 |
| 20260902123057 | 56 | 0 | 0.0 | 0.0 | 0.00 | 0.00 | 0.00 | 62 | 1007.0 |
| 20260902121608 | 55 | 0 | 0.0 | 5.0 | 0.00 | 0.00 | 0.00 | 63 | 1006.8 |
| 20260902120051 | 56 | 238 | 3.0 | 5.0 | 0.00 | 0.00 | 0.00 | 62 | 1006.7 |
| 20260902114622 | 57 | 236 | 2.0 | 4.0 | 0.00 | 0.00 | 0.00 | 60 | 1006.9 |
| 20260902113107 | 57 | 236 | 5.0 | 10.0 | 0.00 | 0.00 | 0.00 | 60 | 1007.2 |
| 20260902111604 | 55 | 171 | 3.0 | 6.0 | 0.00 | 0.00 | 0.00 | 64 | 1007.3 |
| 20260902110118 | 54 | 167 | 4.0 | 8.0 | 0.00 | 0.00 | 0.00 | 67 | 1007.5 |
| 20260902104602 | 52 | 130 | 3.0 | 7.0 | 0.00 | 0.00 | 0.00 | 72 | 1007.5 |
| 20260902103059 | 47 | 111 | 3.0 | 6.0 | 0.00 | 0.00 | 0.00 | 76 | 1007.8 |
| 20260902101601 | 47 | 0 | 0.0 | 0.0 | 0.00 | 0.00 | 0.00 | 74 | 1007.4 |
| 20260902100112 | 48 | 0 | 0.0 | 0.0 | 0.00 | 0.00 | 0.00 | 72 | 1007.4 |
| 20260902094558 | 49 | 0 | 0.0 | 2.0 | 0.00 | 0.00 | 0.00 | 70 | 1007.5 |
| 20260902093055 | 49 | 107 | 0.0 | 3.0 | 0.00 | 0.00 | 0.00 | 70 | 1007.3 |
| 20260902091555 | 50 | 0 | 0.0 | 2.0 | 0.00 | 0.00 | 0.00 | 68 | 1007.4 |
| 20260902090059 | 51 | 107 | 1.0 | 7.0 | 0.00 | 0.00 | 0.00 | 67 | 1007.4 |
| 20260902084617 | 51 | 113 | 3.0 | 6.0 | 0.00 | 0.00 | 0.00 | 65 | 1007.7 |
| 20260902083052 | 52 | 113 | 2.0 | 3.0 | 0.00 | 0.00 | 0.00 | 63 | 1007.7 |
| 20260902081601 | 53 | 113 | 1.0 | 4.0 | 0.00 | 0.00 | 0.00 | 60 | 1007.8 |
| 20260902080059 | 56 | 113 | 2.0 | 4.0 | 0.00 | 0.00 | 0.00 | 57 | 1007.9 |
| 20260902074553 | 57 | 0 | 0.0 | 0.0 | 0.00 | 0.00 | 0.00 | 55 | 1007.8 |
| 20260902073054 | 59 | 0 | 0.0 | 2.0 | 0.00 | 0.00 | 0.00 | 52 | 1007.8 |
| 20260902071605 | 60 | 113 | 2.0 | 3.0 | 0.00 | 0.00 | 0.00 | 51 | 1007.7 |
| 20260902070058 | 62 | 113 | 2.0 | 4.0 | 0.00 | 0.00 | 0.00 | 48 | 1007.6 |
| 20260902064602 | 64 | 113 | 0.0 | 3.0 | 0.00 | 0.00 | 0.00 | 46 | 1007.7 |
| 20260902063102 | 64 | 113 | 2.0 | 8.0 | 0.00 | 0.00 | 0.00 | 45 | 1007.9 |
| 20260902060106 | 63 | 0 | 0.0 | 3.0 | 0.00 | 0.00 | 0.00 | 46 | 1008.1 |
| 20260902054553 | 63 | 119 | 2.0 | 8.0 | 0.00 | 0.00 | 0.00 | 47 | 1008.0 |
| 20260902053059 | 62 | 0 | 1.0 | 3.0 | 0.00 | 0.00 | 0.00 | 49 | 1008.2 |
| 20260902051553 | 61 | 119 | 2.0 | 4.0 | 0.00 | 0.00 | 0.00 | 50 | 1008.1 |
| 20260902050121 | 60 | 0 | 0.0 | 0.0 | 0.00 | 0.00 | 0.00 | 50 | 1008.0 |
| 20260902044559 | 60 | 0 | 0.0 | 2.0 | 0.00 | 0.00 | 0.00 | 49 | 1007.9 |
| 20260902043104 | 62 | 119 | 0.0 | 2.0 | 0.00 | 0.00 | 0.00 | 47 | 1008.1 |
| 20260902041552 | 61 | 0 | 0.0 | 2.0 | 0.00 | 0.00 | 0.00 | 47 | 1008.1 |
| 20260902040054 | 64 | 0 | 0.0 | 0.0 | 0.00 | 0.00 | 0.00 | 42 | 1008.1 |
| 20260902034604 | 64 | 0 | 0.0 | 2.0 | 0.00 | 0.00 | 0.00 | 41 | 1008.3 |
| 20260902033056 | 64 | 0 | 0.0 | 0.0 | 0.00 | 0.00 | 0.00 | 40 | 1008.3 |
| 20260902031554 | 67 | 119 | 1.0 | 3.0 | 0.00 | 0.00 | 0.00 | 37 | 1008.3 |
| 20260902030052 | 67 | 119 | 3.0 | 6.0 | 0.00 | 0.00 | 0.00 | 37 | 1008.3 |
| 20260902024555 | 66 | 0 | 0.0 | 0.0 | 0.00 | 0.00 | 0.00 | 36 | 1008.1 |
| 20260902023055 | 67 | 0 | 0.0 | 0.0 | 0.00 | 0.00 | 0.00 | 35 | 1008.1 |
| 20260902021551 | 69 | 0 | 0.0 | 3.0 | 0.00 | 0.00 | 0.00 | 33 | 1008.1 |
| 20260902020057 | 70 | 0 | 0.0 | 0.0 | 0.00 | 0.00 | 0.00 | 32 | 1008.2 |
| 20260902014552 | 75 | 119 | 1.0 | 3.0 | 0.00 | 0.00 | 0.00 | 28 | 1008.1 |
| 20260902013051 | 79 | 119 | 1.0 | 6.0 | 0.00 | 0.00 | 0.00 | 25 | 1008.1 |
| 20260902011601 | 80 | 119 | 5.0 | 9.0 | 0.00 | 0.00 | 0.00 | 24 | 1008.2 |
| 20260902010105 | 81 | 117 | 5.0 | 10.0 | 0.00 | 0.00 | 0.00 | 24 | 1008.2 |
| 20260902004553 | 81 | 119 | 8.0 | 13.0 | 0.00 | 0.00 | 0.00 | 24 | 1008.2 |
| 20260902003101 | 82 | 146 | 7.0 | 12.0 | 0.00 | 0.00 | 0.00 | 24 | 1008.2 |
| 20260902001610 | 82 | 140 | 10.0 | 16.0 | 0.00 | 0.00 | 0.00 | 24 | 1008.2 |
| 20260902000056 | 83 | 144 | 8.0 | 13.0 | 0.00 | 0.00 | 0.00 | 21 | 1008.3 |
| 20260901234552 | 84 | 106 | 7.0 | 11.0 | 0.00 | 0.00 | 0.00 | 23 | 1008.3 |
| 20260901233057 | 83 | 157 | 4.0 | 12.0 | 0.00 | 0.00 | 0.00 | 21 | 1008.5 |
| 20260901231552 | 83 | 128 | 6.0 | 14.0 | 0.00 | 0.00 | 0.00 | 21 | 1008.6 |
| 20260901230053 | 83 | 181 | 6.0 | 11.0 | 0.00 | 0.00 | 0.00 | 21 | 1008.8 |
| 20260901224604 | 83 | 113 | 7.0 | 14.0 | 0.00 | 0.00 | 0.00 | 22 | 1008.9 |
| 20260901223055 | 83 | 153 | 3.0 | 10.0 | 0.00 | 0.00 | 0.00 | 22 | 1009.2 |
| 20260901221604 | 82 | 178 | 8.0 | 11.0 | 0.00 | 0.00 | 0.00 | 23 | 1009.2 |
| 20260901220057 | 82 | 150 | 2.0 | 14.0 | 0.00 | 0.00 | 0.00 | 24 | 1009.4 |
| 20260901214601 | 82 | 142 | 6.0 | 11.0 | 0.00 | 0.00 | 0.00 | 24 | 1009.6 |
| 20260901213058 | 82 | 67 | 2.0 | 9.0 | 0.00 | 0.00 | 0.00 | 24 | 1009.8 |
| 20260901211600 | 82 | 153 | 4.0 | 12.0 | 0.00 | 0.00 | 0.00 | 25 | 1010.0 |
| 20260901210112 | 80 | 138 | 0.0 | 11.0 | 0.00 | 0.00 | 0.00 | 25 | 1010.2 |